Tracking 19847 objects as of 17-Sep-2019
HD Live streaming from Space Station
objects crossing your sky now

COSMOS 249 DEB

Track COSMOS 249 DEB now!
10-day predictions


NORAD ID: 3923
Int'l Code: 1968-091BR
Perigee: 668.6 km
Apogee: 1,610.0 km
Inclination: 62.2 °
Period: 108.0 minutes
Semi major axis: 7510 km
RCS: 0.0428 m2 (small)
Launch date: October 20, 1968
Source: Commonwealth of Independent States (former USSR) (CIS)
Launch site: TYURATAM MISSILE AND SPACE COMPLEX (TTMTR)

Note: This is SATELLITE DEBRIS
aabbcc
Your satellite tracking list
Your tracking list is empty




NASA's NSSDC Master Catalog

Two Line Element Set (TLE):
1  3923U 68091BR  19259.87222859 -.00000007  00000-0  61123-4 0  9995
2  3923  62.2333 138.9463 0626736 335.7194  21.5416 13.33885738406103
Source of the keplerian elements: AFSPC